FWI40J LFPO-TFFR

Flight info

Callsign FWI40J
Flight time 8h 22m
Altitude 33000
Route LGL2E LGL UT176 ROLEN UZ15 DIDAK DCT AKEMO/N0488F350 DCT RIVAK/M085F350 UN460 SIVIR DCT PASAS DCT 42N020W/M085F360 38N030W 35N035W 32N040W/M085F380 29N045W 26N050W 22N055W DCT BNJEE/N0490F380 DCT BOSET BOSET2A
Aircraft A35K/H-SDE2E3GHIJ3J4J5LM1ORWXY/LB1D1

Departure

Time 2026-04-30 13:13
Airport Paris-Orly Airport (LFPO)

Arrival

Time 2026-04-30 21:35
Airport Maryse Condé International Airport (TFFR)
Time Latitude Longitude Altitude Speed Heading
2026-04-30 12:35 48.72928 2.37600 303 ft 0 kts 310°
2026-04-30 12:36 48.72928 2.37601 303 ft 0 kts 310°
2026-04-30 12:42 48.72924 2.37607 307 ft 0 kts 310°
2026-04-30 12:42 48.72928 2.37600 306 ft 0 kts 310°
2026-04-30 12:46 48.72928 2.37601 306 ft 0 kts 310°
2026-04-30 12:56 48.72928 2.37602 307 ft 0 kts 310°
2026-04-30 12:58 48.72927 2.37602 307 ft 0 kts 310°
2026-04-30 13:01 48.72916 2.37622 310 ft 4 kts 310°
2026-04-30 13:01 48.72899 2.37652 311 ft 4 kts 311°
2026-04-30 13:02 48.72881 2.37683 311 ft 4 kts 309°
2026-04-30 13:02 48.72864 2.37715 311 ft 4 kts 309°
2026-04-30 13:02 48.72851 2.37741 311 ft 4 kts 284°
2026-04-30 13:02 48.72850 2.37764 311 ft 4 kts 252°
2026-04-30 13:03 48.72858 2.37789 311 ft 4 kts 214°
2026-04-30 13:03 48.72880 2.37805 310 ft 4 kts 195°
2026-04-30 13:03 48.72901 2.37814 311 ft 1 kts 198°
2026-04-30 13:03 48.72905 2.37815 310 ft 0 kts 198°
2026-04-30 13:06 48.72901 2.37814 311 ft 2 kts 198°
2026-04-30 13:06 48.72863 2.37795 311 ft 8 kts 198°
2026-04-30 13:06 48.72803 2.37765 309 ft 10 kts 198°
2026-04-30 13:06 48.72733 2.37730 312 ft 11 kts 199°
2026-04-30 13:07 48.72684 2.37645 310 ft 11 kts 253°
2026-04-30 13:07 48.72662 2.37528 312 ft 12 kts 255°
2026-04-30 13:07 48.72639 2.37399 309 ft 13 kts 255°
2026-04-30 13:07 48.72613 2.37260 310 ft 14 kts 254°
2026-04-30 13:08 48.72586 2.37112 311 ft 15 kts 254°
2026-04-30 13:08 48.72557 2.36953 311 ft 16 kts 254°
2026-04-30 13:08 48.72526 2.36787 310 ft 17 kts 254°
2026-04-30 13:08 48.72493 2.36607 311 ft 18 kts 254°
2026-04-30 13:09 48.72459 2.36423 311 ft 19 kts 254°
2026-04-30 13:09 48.72422 2.36228 310 ft 20 kts 255°
2026-04-30 13:09 48.72385 2.36026 311 ft 20 kts 254°
2026-04-30 13:09 48.72350 2.35841 310 ft 8 kts 255°
2026-04-30 13:10 48.72334 2.35749 310 ft 10 kts 255°
2026-04-30 13:10 48.72309 2.35652 313 ft 10 kts 230°
2026-04-30 13:10 48.72247 2.35601 311 ft 10 kts 188°
2026-04-30 13:10 48.72176 2.35622 310 ft 11 kts 166°
2026-04-30 13:11 48.72102 2.35656 312 ft 11 kts 158°
2026-04-30 13:11 48.72043 2.35731 312 ft 11 kts 128°
2026-04-30 13:11 48.72000 2.35827 312 ft 11 kts 122°
2026-04-30 13:11 48.71969 2.35927 312 ft 10 kts 107°
2026-04-30 13:12 48.71972 2.36021 313 ft 0 kts 75°
2026-04-30 13:12 48.71973 2.36027 312 ft 3 kts 75°
2026-04-30 13:12 48.72032 2.36351 312 ft 64 kts 74°
2026-04-30 13:13 48.72480 2.38777 369 ft 164 kts 76°
2026-04-30 13:13 48.72797 2.40379 1091 ft 155 kts 75°
2026-04-30 13:13 48.73390 2.43692 2153 ft 176 kts 77°
2026-04-30 13:14 48.73731 2.45545 2501 ft 190 kts 76°
2026-04-30 13:14 48.73995 2.47564 2828 ft 202 kts 86°
2026-04-30 13:14 48.74189 2.52179 3459 ft 235 kts 89°
2026-04-30 13:15 48.74273 2.54714 3814 ft 244 kts 91°
2026-04-30 13:15 48.73350 2.59642 4821 ft 248 kts 119°
2026-04-30 13:15 48.72296 2.61736 5307 ft 252 kts 138°
2026-04-30 13:16 48.70776 2.63049 5828 ft 257 kts 163°
2026-04-30 13:16 48.68986 2.63124 6377 ft 264 kts 191°
2026-04-30 13:16 48.67351 2.61838 6858 ft 272 kts 220°
2026-04-30 13:17 48.65022 2.57227 7913 ft 281 kts 238°
2026-04-30 13:17 48.64142 2.54565 8441 ft 285 kts 243°
2026-04-30 13:17 48.62888 2.49915 9325 ft 290 kts 246°
2026-04-30 13:18 48.61971 2.46063 10027 ft 293 kts 248°
2026-04-30 13:18 48.60588 2.40103 10616 ft 312 kts 248°
2026-04-30 13:18 48.59857 2.37003 10854 ft 323 kts 248°
2026-04-30 13:19 48.59077 2.33750 11080 ft 335 kts 247°
2026-04-30 13:19 48.58264 2.30388 11296 ft 346 kts 247°
2026-04-30 13:19 48.57426 2.26922 11507 ft 357 kts 247°
2026-04-30 13:19 48.56559 2.23353 11724 ft 367 kts 247°
2026-04-30 13:20 48.55667 2.19687 11926 ft 377 kts 247°
2026-04-30 13:20 48.54754 2.15930 12165 ft 385 kts 247°
2026-04-30 13:20 48.53824 2.12116 12495 ft 389 kts 248°
2026-04-30 13:20 48.52886 2.08264 12878 ft 392 kts 247°
2026-04-30 13:21 48.51941 2.04385 13256 ft 396 kts 247°
2026-04-30 13:21 48.50990 2.00472 13647 ft 399 kts 247°
2026-04-30 13:21 48.50026 1.96539 14018 ft 401 kts 247°
2026-04-30 13:22 48.48065 1.88615 14719 ft 405 kts 247°
2026-04-30 13:22 48.47415 1.85979 14966 ft 407 kts 247°
2026-04-30 13:22 48.45430 1.77945 15698 ft 411 kts 247°
2026-04-30 13:23 48.44427 1.73901 16056 ft 413 kts 247°
2026-04-30 13:23 48.42398 1.65757 16783 ft 418 kts 247°
2026-04-30 13:24 48.40341 1.57521 17496 ft 423 kts 246°
2026-04-30 13:24 48.38250 1.49185 18206 ft 428 kts 246°
2026-04-30 13:25 48.36136 1.40770 18816 ft 433 kts 246°
2026-04-30 13:25 48.33989 1.32270 19419 ft 437 kts 246°
2026-04-30 13:26 48.30721 1.19392 20314 ft 443 kts 246°
2026-04-30 13:26 48.28513 1.10727 20918 ft 446 kts 245°
2026-04-30 13:27 48.26278 1.01991 21542 ft 450 kts 245°
2026-04-30 13:28 48.22879 0.88773 22409 ft 455 kts 245°
2026-04-30 13:28 48.20586 0.79896 23017 ft 459 kts 245°
2026-04-30 13:28 48.19429 0.75428 23292 ft 460 kts 245°
2026-04-30 13:29 48.17101 0.66459 23850 ft 463 kts 246°
2026-04-30 13:29 48.14751 0.57451 24371 ft 465 kts 246°
2026-04-30 13:30 48.11212 0.43951 25166 ft 468 kts 246°
2026-04-30 13:31 48.08821 0.34875 25738 ft 470 kts 246°
2026-04-30 13:31 48.05203 0.21201 26563 ft 473 kts 246°
2026-04-30 13:32 48.02767 0.12041 27102 ft 476 kts 246°
2026-04-30 13:32 48.00308 0.02822 27639 ft 479 kts 246°
2026-04-30 13:33 47.97821 -0.06449 28183 ft 482 kts 246°
2026-04-30 13:33 47.95312 -0.15763 28708 ft 486 kts 246°
2026-04-30 13:34 47.94046 -0.20448 28967 ft 487 kts 246°
2026-04-30 13:34 47.90219 -0.34564 29688 ft 492 kts 246°
2026-04-30 13:35 47.88935 -0.39285 29931 ft 493 kts 246°
2026-04-30 13:35 47.86345 -0.48779 30364 ft 496 kts 245°
2026-04-30 13:36 47.83740 -0.58280 30942 ft 494 kts 245°
2026-04-30 13:36 47.82442 -0.63003 31257 ft 493 kts 245°
2026-04-30 13:36 47.79840 -0.72442 31829 ft 492 kts 245°
2026-04-30 13:37 47.78539 -0.77148 32148 ft 491 kts 245°
2026-04-30 13:37 47.75939 -0.86521 32717 ft 490 kts 245°
2026-04-30 13:38 47.73346 -0.95829 33058 ft 494 kts 245°
2026-04-30 13:38 47.72012 -1.00604 33054 ft 495 kts 245°
2026-04-30 13:39 47.66739 -1.19392 33052 ft 494 kts 245°
2026-04-30 13:40 47.62755 -1.33493 33049 ft 494 kts 245°
2026-04-30 13:40 47.60093 -1.42868 33048 ft 493 kts 245°
2026-04-30 13:41 47.57427 -1.52220 33047 ft 493 kts 244°
2026-04-30 13:41 47.54757 -1.61554 33050 ft 492 kts 244°
2026-04-30 13:42 47.52082 -1.70866 33052 ft 491 kts 244°
2026-04-30 13:42 47.48058 -1.84805 33057 ft 491 kts 244°
2026-04-30 13:43 47.45369 -1.94076 33063 ft 491 kts 244°
2026-04-30 13:43 47.42668 -2.03352 33071 ft 492 kts 244°
2026-04-30 13:44 47.39948 -2.12660 33076 ft 494 kts 244°
2026-04-30 13:44 47.37218 -2.21969 33075 ft 495 kts 244°
2026-04-30 13:45 47.33095 -2.35959 33074 ft 496 kts 244°
2026-04-30 13:46 47.30333 -2.45288 33065 ft 496 kts 244°
2026-04-30 13:46 47.27566 -2.54593 33062 ft 496 kts 244°
2026-04-30 13:47 47.24795 -2.63878 33060 ft 495 kts 243°
2026-04-30 13:47 47.22018 -2.73150 33061 ft 495 kts 243°
2026-04-30 13:48 47.19239 -2.82396 33063 ft 494 kts 243°
2026-04-30 13:48 47.16455 -2.91620 33060 ft 493 kts 243°
2026-04-30 13:48 47.15064 -2.96217 33198 ft 491 kts 243°
2026-04-30 13:49 47.13825 -3.00878 33664 ft 488 kts 250°
2026-04-30 13:49 47.12797 -3.05593 34196 ft 482 kts 250°
2026-04-30 13:49 47.11829 -3.10224 34533 ft 480 kts 251°
2026-04-30 13:49 47.10871 -3.14917 34769 ft 479 kts 251°
2026-04-30 13:50 47.09924 -3.19600 34998 ft 479 kts 251°
2026-04-30 13:50 47.07028 -3.33870 35069 ft 486 kts 252°
2026-04-30 13:51 47.05097 -3.43280 35066 ft 484 kts 252°
2026-04-30 13:51 47.03149 -3.52718 35066 ft 483 kts 252°
2026-04-30 13:52 47.01193 -3.62137 35069 ft 483 kts 252°
2026-04-30 13:52 46.99234 -3.71532 35068 ft 482 kts 252°
2026-04-30 13:53 46.97268 -3.80919 35070 ft 482 kts 252°
2026-04-30 13:53 46.95297 -3.90285 35070 ft 481 kts 252°
2026-04-30 13:54 46.93321 -3.99634 35070 ft 481 kts 252°
2026-04-30 13:54 46.91338 -4.08974 35075 ft 480 kts 252°
2026-04-30 13:55 46.89352 -4.18283 35071 ft 479 kts 252°
2026-04-30 13:55 46.87361 -4.27572 35074 ft 479 kts 252°
2026-04-30 13:56 46.85364 -4.36848 35073 ft 478 kts 252°
2026-04-30 13:56 46.83361 -4.46114 35075 ft 478 kts 252°
2026-04-30 13:57 46.81351 -4.55365 35071 ft 478 kts 252°
2026-04-30 13:57 46.79337 -4.64600 35069 ft 477 kts 252°
2026-04-30 13:58 46.76302 -4.78439 35072 ft 477 kts 252°
2026-04-30 13:59 46.74270 -4.87652 35073 ft 477 kts 252°
2026-04-30 13:59 46.72233 -4.96846 35073 ft 476 kts 251°
2026-04-30 14:00 46.70190 -5.06027 35076 ft 476 kts 251°
2026-04-30 14:00 46.67120 -5.19752 35071 ft 475 kts 251°
2026-04-30 14:01 46.65068 -5.28875 35074 ft 474 kts 251°
2026-04-30 14:01 46.63010 -5.37983 35080 ft 473 kts 251°
2026-04-30 14:02 46.60951 -5.47061 35074 ft 472 kts 250°
2026-04-30 14:02 46.58886 -5.56121 35075 ft 472 kts 250°
2026-04-30 14:03 46.56819 -5.65156 35077 ft 471 kts 250°
2026-04-30 14:03 46.54749 -5.74166 35081 ft 470 kts 250°
2026-04-30 14:04 46.52690 -5.83091 35075 ft 469 kts 250°
2026-04-30 14:04 46.50614 -5.92050 35080 ft 468 kts 250°
2026-04-30 14:05 46.48538 -6.00974 35076 ft 467 kts 250°
2026-04-30 14:05 46.46456 -6.09888 35076 ft 466 kts 250°
2026-04-30 14:06 46.43330 -6.23202 35079 ft 464 kts 250°
2026-04-30 14:07 46.40198 -6.36460 35088 ft 463 kts 250°
2026-04-30 14:08 46.37059 -6.49671 35081 ft 462 kts 250°
2026-04-30 14:08 46.33914 -6.62828 35081 ft 460 kts 250°
2026-04-30 14:09 46.31815 -6.71566 35078 ft 459 kts 249°
2026-04-30 14:10 46.29016 -6.83163 35079 ft 459 kts 249°
2026-04-30 14:10 46.26907 -6.91865 35077 ft 458 kts 249°
2026-04-30 14:11 46.24794 -7.00545 35078 ft 458 kts 249°
2026-04-30 14:11 46.22677 -7.09211 35080 ft 457 kts 249°
2026-04-30 14:12 46.20557 -7.17855 35078 ft 457 kts 249°
2026-04-30 14:12 46.18429 -7.26497 35080 ft 457 kts 249°
2026-04-30 14:13 46.16296 -7.35127 35078 ft 456 kts 249°
2026-04-30 14:13 46.14159 -7.43741 35075 ft 456 kts 249°
2026-04-30 14:14 46.12014 -7.52353 35080 ft 456 kts 249°
2026-04-30 14:14 46.09865 -7.60950 35078 ft 456 kts 248°
2026-04-30 14:15 46.07709 -7.69541 35078 ft 456 kts 248°
2026-04-30 14:15 46.05550 -7.78114 35075 ft 455 kts 248°
2026-04-30 14:16 46.03385 -7.86679 35075 ft 455 kts 248°
2026-04-30 14:16 46.01237 -7.95244 35073 ft 455 kts 250°
2026-04-30 14:17 46.00082 -8.04217 35070 ft 460 kts 264°
2026-04-30 14:17 45.99961 -8.13436 35074 ft 462 kts 266°
2026-04-30 14:18 46.00009 -8.22622 35075 ft 462 kts 267°
2026-04-30 14:18 46.00066 -8.36486 35074 ft 462 kts 266°
2026-04-30 14:19 46.00063 -8.50342 35074 ft 462 kts 266°
2026-04-30 14:20 46.00047 -8.59569 35076 ft 461 kts 266°
2026-04-30 14:20 45.99860 -8.73377 35073 ft 458 kts 259°
2026-04-30 14:21 45.98481 -8.82245 35067 ft 453 kts 251°
2026-04-30 14:22 45.95720 -8.95224 35069 ft 453 kts 250°
2026-04-30 14:22 45.92891 -9.08156 35069 ft 452 kts 250°
2026-04-30 14:23 45.89146 -9.25383 35066 ft 452 kts 250°
2026-04-30 14:24 45.86327 -9.38278 35065 ft 451 kts 250°
2026-04-30 14:25 45.82551 -9.55419 35066 ft 450 kts 249°
2026-04-30 14:26 45.79705 -9.68248 35059 ft 450 kts 249°
2026-04-30 14:27 45.76846 -9.81053 35061 ft 450 kts 249°
2026-04-30 14:27 45.74936 -9.89571 35047 ft 449 kts 249°
2026-04-30 14:28 45.72070 -10.02283 35054 ft 449 kts 249°
2026-04-30 14:28 45.70145 -10.10778 35070 ft 449 kts 249°
2026-04-30 14:29 45.66279 -10.27739 35057 ft 448 kts 249°
2026-04-30 14:31 45.61419 -10.48879 35056 ft 448 kts 249°
2026-04-30 14:31 45.58486 -10.61536 35058 ft 447 kts 249°
2026-04-30 14:32 45.55543 -10.74160 35056 ft 447 kts 249°
2026-04-30 14:33 45.53574 -10.82569 35054 ft 447 kts 249°
2026-04-30 14:33 45.50612 -10.95155 35054 ft 446 kts 249°
2026-04-30 14:34 45.48631 -11.03533 35053 ft 446 kts 249°
2026-04-30 14:34 45.46644 -11.11907 35054 ft 446 kts 249°
2026-04-30 14:35 45.43653 -11.24448 35054 ft 446 kts 249°
2026-04-30 14:36 45.41654 -11.32794 35053 ft 446 kts 249°
2026-04-30 14:36 45.39661 -11.41083 35052 ft 445 kts 248°
2026-04-30 14:37 45.37636 -11.49470 35051 ft 445 kts 248°
2026-04-30 14:37 45.35617 -11.57804 35050 ft 445 kts 248°
2026-04-30 14:38 45.33607 -11.66067 35053 ft 445 kts 248°
2026-04-30 14:38 45.31578 -11.74380 35052 ft 445 kts 248°
2026-04-30 14:39 45.29542 -11.82689 35048 ft 445 kts 248°
2026-04-30 14:39 45.27502 -11.90989 35049 ft 445 kts 248°
2026-04-30 14:40 45.24426 -12.03441 35049 ft 445 kts 248°
2026-04-30 14:40 45.22370 -12.11728 35048 ft 445 kts 248°
2026-04-30 14:41 45.20306 -12.20013 35050 ft 445 kts 248°
2026-04-30 14:41 45.18237 -12.28292 35048 ft 446 kts 248°
2026-04-30 14:42 45.16160 -12.36573 35048 ft 446 kts 248°
2026-04-30 14:42 45.14078 -12.44844 35049 ft 446 kts 248°
2026-04-30 14:43 45.11988 -12.53113 35047 ft 446 kts 248°
2026-04-30 14:43 45.09894 -12.61371 35046 ft 446 kts 248°
2026-04-30 14:44 45.07792 -12.69634 35050 ft 446 kts 248°
2026-04-30 14:44 45.05683 -12.77890 35047 ft 446 kts 248°
2026-04-30 14:45 45.03569 -12.86139 35051 ft 446 kts 248°
2026-04-30 14:45 45.01449 -12.94382 35052 ft 446 kts 248°
2026-04-30 14:46 44.99035 -13.02444 35050 ft 445 kts 242°
2026-04-30 14:46 44.96662 -13.08901 35052 ft 446 kts 241°
2026-04-30 14:47 44.93249 -13.17858 35050 ft 446 kts 240°
2026-04-30 14:47 44.90298 -13.25554 35050 ft 446 kts 240°
2026-04-30 14:48 44.87348 -13.33259 35049 ft 447 kts 240°
2026-04-30 14:48 44.84395 -13.40965 35046 ft 447 kts 240°
2026-04-30 14:49 44.81435 -13.48673 35050 ft 447 kts 240°
2026-04-30 14:49 44.78466 -13.56378 35052 ft 448 kts 240°
2026-04-30 14:50 44.74003 -13.67924 35053 ft 448 kts 240°
2026-04-30 14:51 44.69519 -13.79473 35051 ft 449 kts 240°
2026-04-30 14:52 44.65019 -13.91018 35054 ft 449 kts 240°
2026-04-30 14:52 44.60502 -14.02556 35055 ft 450 kts 240°
2026-04-30 14:53 44.55965 -14.14098 35055 ft 451 kts 240°
2026-04-30 14:54 44.49886 -14.29489 35056 ft 452 kts 240°
2026-04-30 14:55 44.45324 -14.40985 35059 ft 453 kts 239°
2026-04-30 14:56 44.39183 -14.56384 35058 ft 454 kts 239°
2026-04-30 14:57 44.34552 -14.67944 35061 ft 455 kts 239°
2026-04-30 14:58 44.28346 -14.83357 35059 ft 456 kts 239°
2026-04-30 14:58 44.23669 -14.94919 35063 ft 457 kts 239°
2026-04-30 15:00 44.16366 -15.12879 35062 ft 458 kts 239°
2026-04-30 15:01 44.10051 -15.28319 35063 ft 460 kts 239°
2026-04-30 15:01 44.05287 -15.39910 35067 ft 461 kts 239°
2026-04-30 15:02 44.02097 -15.47646 35063 ft 462 kts 239°
2026-04-30 15:03 43.94072 -15.67014 35064 ft 464 kts 238°
2026-04-30 15:04 43.85999 -15.86368 35063 ft 466 kts 238°
2026-04-30 15:06 43.77824 -16.05832 35060 ft 469 kts 238°
2026-04-30 15:07 43.71231 -16.21436 35062 ft 471 kts 238°
2026-04-30 15:08 43.64585 -16.37078 35062 ft 473 kts 238°
2026-04-30 15:09 43.56212 -16.56665 35064 ft 475 kts 238°
2026-04-30 15:10 43.49463 -16.72357 35063 ft 477 kts 238°
2026-04-30 15:11 43.39251 -16.95943 35055 ft 479 kts 238°
2026-04-30 15:13 43.30664 -17.15628 35054 ft 482 kts 237°
2026-04-30 15:14 43.18528 -17.43223 35048 ft 485 kts 237°
2026-04-30 15:17 43.02680 -17.78872 35044 ft 489 kts 237°
2026-04-30 15:19 42.88373 -18.10690 35036 ft 494 kts 237°
2026-04-30 17:39 33.35704 -37.82213 35863 ft 433 kts 233°
2026-04-30 17:42 33.17939 -38.11457 35843 ft 436 kts 233°
2026-04-30 17:43 33.08995 -38.26093 35831 ft 437 kts 233°
2026-04-30 17:44 32.98222 -38.43645 35817 ft 439 kts 233°
2026-04-30 17:47 32.81876 -38.70118 35805 ft 443 kts 233°
2026-04-30 17:48 32.69018 -38.90813 35793 ft 446 kts 233°
2026-04-30 17:50 32.54192 -39.14535 35787 ft 448 kts 234°
2026-04-30 17:52 32.43040 -39.32278 35784 ft 448 kts 234°
2026-04-30 17:54 32.26259 -39.58825 35786 ft 447 kts 234°
2026-04-30 17:56 32.11326 -39.82290 35785 ft 446 kts 234°
2026-04-30 17:58 32.00144 -39.99768 36208 ft 440 kts 234°
2026-04-30 17:59 31.93412 -40.11508 37603 ft 428 kts 239°
2026-04-30 18:00 31.86841 -40.23325 37784 ft 432 kts 238°
2026-04-30 18:01 31.78526 -40.37971 37794 ft 431 kts 238°
2026-04-30 18:02 31.68527 -40.55529 37790 ft 431 kts 238°
2026-04-30 18:04 31.58450 -40.73145 37795 ft 441 kts 238°
2026-04-30 18:06 31.44827 -40.96819 37793 ft 431 kts 239°
2026-04-30 18:08 31.33054 -41.17175 37792 ft 432 kts 239°
2026-04-30 18:10 31.19548 -41.40391 37795 ft 431 kts 239°
2026-04-30 18:11 31.07705 -41.60636 37795 ft 432 kts 239°
2026-04-30 18:13 30.99248 -41.75028 37798 ft 431 kts 239°
2026-04-30 18:14 30.90764 -41.89416 37797 ft 431 kts 239°
2026-04-30 18:15 30.80572 -42.06628 37797 ft 430 kts 239°
2026-04-30 18:16 30.73777 -42.18062 37797 ft 429 kts 239°
2026-04-30 18:17 30.70381 -42.23766 37801 ft 429 kts 239°
2026-04-30 18:18 30.65853 -42.31356 37798 ft 429 kts 239°
2026-04-30 18:18 30.62456 -42.37042 37799 ft 429 kts 239°
2026-04-30 18:19 30.59053 -42.42729 37799 ft 429 kts 239°
2026-04-30 18:19 30.55648 -42.48411 37800 ft 429 kts 239°
2026-04-30 18:20 30.52242 -42.54088 37805 ft 429 kts 239°
2026-04-30 18:20 30.48837 -42.59754 37805 ft 428 kts 239°
2026-04-30 18:21 30.45425 -42.65423 37801 ft 428 kts 239°
2026-04-30 18:21 30.42014 -42.71083 37812 ft 428 kts 240°
2026-04-30 18:22 30.38600 -42.76740 37790 ft 428 kts 240°
2026-04-30 18:22 30.33478 -42.85212 37792 ft 428 kts 240°
2026-04-30 18:23 30.30058 -42.90860 37794 ft 428 kts 240°
2026-04-30 18:23 30.26639 -42.96497 37799 ft 428 kts 240°
2026-04-30 18:24 30.21501 -43.04954 37792 ft 428 kts 240°
2026-04-30 18:25 30.18072 -43.10589 37790 ft 428 kts 240°
2026-04-30 18:25 30.12925 -43.19030 37798 ft 428 kts 240°
2026-04-30 18:26 30.07795 -43.27429 37798 ft 428 kts 240°
2026-04-30 18:27 30.02636 -43.35855 37800 ft 428 kts 240°
2026-04-30 18:28 29.97472 -43.44272 37803 ft 428 kts 240°
2026-04-30 18:28 29.92303 -43.52680 37803 ft 428 kts 240°
2026-04-30 18:29 29.85403 -43.63877 37797 ft 428 kts 241°
2026-04-30 18:30 29.78497 -43.75053 37801 ft 428 kts 241°
2026-04-30 18:31 29.73311 -43.83427 37799 ft 428 kts 241°
2026-04-30 18:32 29.68122 -43.91786 37814 ft 428 kts 241°
2026-04-30 18:33 29.62925 -44.00142 37805 ft 428 kts 241°
2026-04-30 18:33 29.57746 -44.08452 37811 ft 428 kts 241°
2026-04-30 18:34 29.52538 -44.16792 37814 ft 428 kts 241°
2026-04-30 18:35 29.49058 -44.22354 37813 ft 429 kts 241°
2026-04-30 18:35 29.45580 -44.27907 37815 ft 429 kts 241°
2026-04-30 18:36 29.40356 -44.36233 37818 ft 429 kts 241°
2026-04-30 18:37 29.35124 -44.44554 37818 ft 429 kts 241°
2026-04-30 18:37 29.31631 -44.50101 37818 ft 429 kts 241°
2026-04-30 18:38 29.28135 -44.55645 37820 ft 429 kts 241°
2026-04-30 18:38 29.24635 -44.61188 37820 ft 429 kts 241°
2026-04-30 18:39 29.21134 -44.66725 37821 ft 429 kts 241°
2026-04-30 18:39 29.17630 -44.72259 37823 ft 429 kts 240°
2026-04-30 18:40 29.14121 -44.77793 37825 ft 429 kts 240°
2026-04-30 18:40 29.10612 -44.83320 37824 ft 430 kts 240°
2026-04-30 18:41 29.07100 -44.88846 37827 ft 430 kts 240°
2026-04-30 18:41 29.03580 -44.94376 37827 ft 430 kts 240°
2026-04-30 18:42 29.00060 -44.99898 37827 ft 430 kts 240°
2026-04-30 18:42 28.95110 -45.08392 37830 ft 427 kts 244°
2026-04-30 18:45 28.77371 -45.39795 37832 ft 430 kts 243°
2026-04-30 18:46 28.74105 -45.45508 37834 ft 430 kts 243°
2026-04-30 18:46 28.70835 -45.51221 37837 ft 431 kts 243°
2026-04-30 18:47 28.67557 -45.56940 37840 ft 431 kts 243°
2026-04-30 18:47 28.64278 -45.62654 37838 ft 432 kts 243°
2026-04-30 18:48 28.60987 -45.68380 37838 ft 432 kts 243°
2026-04-30 18:48 28.57692 -45.74105 37839 ft 433 kts 243°
2026-04-30 18:49 28.54389 -45.79836 37839 ft 433 kts 243°
2026-04-30 18:49 28.51081 -45.85570 37841 ft 434 kts 243°
2026-04-30 18:50 28.47764 -45.91309 37846 ft 435 kts 243°
2026-04-30 18:50 28.44441 -45.97051 37836 ft 435 kts 243°
2026-04-30 18:51 28.41115 -46.02792 37844 ft 435 kts 243°
2026-04-30 18:51 28.37781 -46.08537 37844 ft 436 kts 243°
2026-04-30 18:52 28.34442 -46.14286 37850 ft 436 kts 243°
2026-04-30 18:52 28.31097 -46.20034 37846 ft 437 kts 243°
2026-04-30 18:53 28.27747 -46.25784 37847 ft 437 kts 242°
2026-04-30 18:53 28.24395 -46.31531 37848 ft 437 kts 242°
2026-04-30 18:54 28.21032 -46.37287 37853 ft 438 kts 242°
2026-04-30 18:54 28.17665 -46.43045 37849 ft 438 kts 242°
2026-04-30 18:55 28.14314 -46.48765 37855 ft 439 kts 242°
2026-04-30 18:55 28.09245 -46.57405 37853 ft 439 kts 242°
2026-04-30 18:56 28.04167 -46.66042 37854 ft 440 kts 242°
2026-04-30 18:57 27.99077 -46.74683 37855 ft 440 kts 242°
2026-04-30 18:57 27.95679 -46.80443 37858 ft 440 kts 242°
2026-04-30 18:58 27.90573 -46.89080 37857 ft 441 kts 242°
2026-04-30 18:59 27.85457 -46.97719 37860 ft 441 kts 242°
2026-04-30 19:00 27.78623 -47.09232 37853 ft 441 kts 241°
2026-04-30 19:01 27.71772 -47.20744 37866 ft 442 kts 241°
2026-04-30 19:02 27.66623 -47.29375 37864 ft 442 kts 241°
2026-04-30 19:03 27.59741 -47.40884 37872 ft 443 kts 241°
2026-04-30 19:04 27.52868 -47.52349 37871 ft 443 kts 240°
2026-04-30 19:05 27.45957 -47.63845 37871 ft 443 kts 240°
2026-04-30 19:06 27.39034 -47.75334 37872 ft 443 kts 240°
2026-04-30 19:06 27.34420 -47.82973 37871 ft 443 kts 240°
2026-04-30 19:07 27.29216 -47.91572 37876 ft 443 kts 240°
2026-04-30 19:08 27.22270 -48.03026 37875 ft 443 kts 240°
2026-04-30 19:09 27.17053 -48.11608 37878 ft 443 kts 239°
2026-04-30 19:09 27.13574 -48.17323 37878 ft 443 kts 239°
2026-04-30 19:10 27.06608 -48.28742 37878 ft 444 kts 239°
2026-04-30 19:11 27.01373 -48.37306 37883 ft 444 kts 239°
2026-04-30 19:12 26.97878 -48.43013 37886 ft 444 kts 239°
2026-04-30 19:12 26.94383 -48.48713 37885 ft 444 kts 239°
2026-04-30 19:13 26.87379 -48.60115 37882 ft 444 kts 239°
2026-04-30 19:14 26.83871 -48.65815 37887 ft 445 kts 239°
2026-04-30 19:14 26.80361 -48.71511 37888 ft 445 kts 239°
2026-04-30 19:15 26.76845 -48.77208 37883 ft 444 kts 239°
2026-04-30 19:15 26.71572 -48.85739 37887 ft 444 kts 239°
2026-04-30 19:16 26.68055 -48.91422 37889 ft 444 kts 239°
2026-04-30 19:17 26.62777 -48.99936 37890 ft 444 kts 239°
2026-04-30 19:17 26.57524 -49.08392 37885 ft 443 kts 239°
2026-04-30 19:18 26.52253 -49.16862 37890 ft 442 kts 239°
2026-04-30 19:19 26.48740 -49.22499 37897 ft 442 kts 239°
2026-04-30 19:19 26.43480 -49.30925 37895 ft 440 kts 239°
2026-04-30 19:20 26.39979 -49.36526 37897 ft 440 kts 239°
2026-04-30 19:21 26.34737 -49.44896 37896 ft 438 kts 239°
2026-04-30 19:22 26.27764 -49.56011 37911 ft 437 kts 239°
2026-04-30 19:23 26.17331 -49.72587 37900 ft 434 kts 240°
2026-04-30 19:24 26.12132 -49.80824 37903 ft 433 kts 240°
2026-04-30 19:25 26.03494 -49.94479 37906 ft 431 kts 240°
2026-04-30 19:26 25.96387 -50.05132 37904 ft 432 kts 235°
2026-04-30 19:27 25.90442 -50.12665 37909 ft 431 kts 234°
2026-04-30 19:28 25.84598 -50.20232 37910 ft 429 kts 236°
2026-04-30 19:29 25.76899 -50.30334 37915 ft 428 kts 236°
2026-04-30 19:30 25.69217 -50.40386 37913 ft 427 kts 236°
2026-04-30 19:31 25.61542 -50.50401 37915 ft 425 kts 236°
2026-04-30 19:31 25.55795 -50.57888 37916 ft 425 kts 236°
2026-04-30 19:32 25.51966 -50.62870 37918 ft 425 kts 236°
2026-04-30 19:32 25.48136 -50.67847 37916 ft 425 kts 236°
2026-04-30 19:33 25.44306 -50.72819 37920 ft 424 kts 236°
2026-04-30 19:33 25.40474 -50.77788 37920 ft 424 kts 235°
2026-04-30 19:34 25.36639 -50.82756 37921 ft 425 kts 235°
2026-04-30 19:35 25.30882 -50.90203 37920 ft 425 kts 235°
2026-04-30 19:35 25.27037 -50.95171 37937 ft 425 kts 235°
2026-04-30 19:36 25.23191 -51.00134 37914 ft 425 kts 235°
2026-04-30 19:36 25.17407 -51.07588 37931 ft 426 kts 235°
2026-04-30 19:37 25.13543 -51.12562 37929 ft 427 kts 235°
2026-04-30 19:37 25.09672 -51.17539 37926 ft 427 kts 234°
2026-04-30 19:38 25.05796 -51.22517 37923 ft 428 kts 234°
2026-04-30 19:38 25.01916 -51.27494 37932 ft 428 kts 234°
2026-04-30 19:39 24.98025 -51.32480 37932 ft 429 kts 234°
2026-04-30 19:39 24.94122 -51.37479 37929 ft 431 kts 234°
2026-04-30 19:40 24.90207 -51.42486 37938 ft 432 kts 234°
2026-04-30 19:40 24.86303 -51.47474 37930 ft 433 kts 234°
2026-04-30 19:41 24.82341 -51.52529 37934 ft 433 kts 234°
2026-04-30 19:41 24.78403 -51.57548 37934 ft 433 kts 234°
2026-04-30 19:42 24.74492 -51.62529 37935 ft 433 kts 234°
2026-04-30 19:42 24.70547 -51.67547 37935 ft 434 kts 234°
2026-04-30 19:43 24.66598 -51.72565 37940 ft 434 kts 234°
2026-04-30 19:44 24.60669 -51.80090 37938 ft 434 kts 234°
2026-04-30 19:44 24.56720 -51.85094 37940 ft 433 kts 234°
2026-04-30 19:45 24.52782 -51.90079 37939 ft 431 kts 234°
2026-04-30 19:45 24.48852 -51.95050 37944 ft 431 kts 234°
2026-04-30 19:46 24.44929 -52.00007 37940 ft 430 kts 234°
2026-04-30 19:46 24.41006 -52.04959 37940 ft 430 kts 234°
2026-04-30 19:47 24.37077 -52.09914 37942 ft 431 kts 234°
2026-04-30 19:47 24.33144 -52.14868 37943 ft 431 kts 234°
2026-04-30 19:48 24.29199 -52.19831 37943 ft 432 kts 234°
2026-04-30 19:48 24.25252 -52.24792 37945 ft 432 kts 234°
2026-04-30 19:49 24.21296 -52.29759 37944 ft 433 kts 234°
2026-04-30 19:49 24.15350 -52.37217 37944 ft 434 kts 234°
2026-04-30 19:50 24.11371 -52.42200 37947 ft 435 kts 234°
2026-04-30 19:50 24.07389 -52.47183 37949 ft 435 kts 234°
2026-04-30 19:51 24.03397 -52.52172 37947 ft 436 kts 234°
2026-04-30 19:51 23.99396 -52.57167 37947 ft 437 kts 234°
2026-04-30 19:52 23.95391 -52.62164 37955 ft 437 kts 234°
2026-04-30 19:52 23.91400 -52.67136 37950 ft 438 kts 234°
2026-04-30 19:53 23.87381 -52.72140 37952 ft 439 kts 234°
2026-04-30 19:53 23.83353 -52.77148 37951 ft 439 kts 234°
2026-04-30 19:54 23.79322 -52.82155 37950 ft 439 kts 234°
2026-04-30 19:54 23.75290 -52.87159 37948 ft 439 kts 234°
2026-04-30 19:55 23.71941 -52.91310 37948 ft 438 kts 235°
2026-04-30 19:55 23.67915 -52.96298 37950 ft 438 kts 235°
2026-04-30 19:56 23.63891 -53.01277 37956 ft 437 kts 235°
2026-04-30 19:56 23.59868 -53.06250 37953 ft 437 kts 235°
2026-04-30 19:57 23.55847 -53.11215 37951 ft 436 kts 235°
2026-04-30 19:57 23.51834 -53.16166 37954 ft 436 kts 235°
2026-04-30 19:58 23.47817 -53.21117 37955 ft 436 kts 235°
2026-04-30 19:58 23.43806 -53.26055 37952 ft 435 kts 235°
2026-04-30 19:59 23.39797 -53.30986 37956 ft 435 kts 235°
2026-04-30 20:00 23.33787 -53.38369 37953 ft 434 kts 235°
2026-04-30 20:00 23.29781 -53.43284 37955 ft 434 kts 235°
2026-04-30 20:01 23.23774 -53.50645 37964 ft 434 kts 235°
2026-04-30 20:01 23.19764 -53.55554 37966 ft 434 kts 235°
2026-04-30 20:02 23.13749 -53.62907 37953 ft 434 kts 235°
2026-04-30 20:03 23.07737 -53.70245 37957 ft 433 kts 235°
2026-04-30 20:03 23.03728 -53.75133 37958 ft 433 kts 235°
2026-04-30 20:04 22.99721 -53.80013 37960 ft 433 kts 235°
2026-04-30 20:05 22.93713 -53.87322 37967 ft 432 kts 235°
2026-04-30 20:05 22.87708 -53.94617 37966 ft 432 kts 235°
2026-04-30 20:06 22.83704 -53.99475 37967 ft 432 kts 235°
2026-04-30 20:06 22.79701 -54.04328 37964 ft 431 kts 235°
2026-04-30 20:07 22.75699 -54.09173 37967 ft 431 kts 235°
2026-04-30 20:08 22.69693 -54.16440 37964 ft 432 kts 235°
2026-04-30 20:08 22.65687 -54.21280 37967 ft 432 kts 235°
2026-04-30 20:09 22.61703 -54.26087 37969 ft 432 kts 235°
2026-04-30 20:09 22.55683 -54.33345 37975 ft 432 kts 236°
2026-04-30 20:10 22.49665 -54.40591 37969 ft 432 kts 235°
2026-04-30 20:11 22.43633 -54.47843 37971 ft 432 kts 235°
2026-04-30 20:11 22.39610 -54.52672 37964 ft 432 kts 235°
2026-04-30 20:12 22.33575 -54.59909 37965 ft 432 kts 236°
2026-04-30 20:13 22.29555 -54.64725 37973 ft 432 kts 236°
2026-04-30 20:13 22.25533 -54.69540 37970 ft 432 kts 235°
2026-04-30 20:14 22.21503 -54.74359 37972 ft 432 kts 235°
2026-04-30 20:14 22.17472 -54.79175 37973 ft 432 kts 235°
2026-04-30 20:15 22.13438 -54.83989 37971 ft 432 kts 235°
2026-04-30 20:15 22.09432 -54.88766 37969 ft 432 kts 235°
2026-04-30 20:16 22.05395 -54.93576 37964 ft 433 kts 235°
2026-04-30 20:16 22.01352 -54.98389 37968 ft 433 kts 235°
2026-04-30 20:17 21.97363 -55.03248 37985 ft 432 kts 237°
2026-04-30 20:17 21.93572 -55.08255 37978 ft 431 kts 238°
2026-04-30 20:18 21.89800 -55.13277 37976 ft 432 kts 238°
2026-04-30 20:18 21.85992 -55.18278 37971 ft 432 kts 238°
2026-04-30 20:19 21.82164 -55.23265 37969 ft 432 kts 237°
2026-04-30 20:19 21.78328 -55.28250 37973 ft 432 kts 237°
2026-04-30 20:20 21.74489 -55.33236 37972 ft 432 kts 237°
2026-04-30 20:20 21.70651 -55.38218 37975 ft 433 kts 237°
2026-04-30 20:21 21.66812 -55.43198 37972 ft 433 kts 237°
2026-04-30 20:21 21.62970 -55.48176 37972 ft 433 kts 237°
2026-04-30 20:22 21.59124 -55.53158 37972 ft 433 kts 237°
2026-04-30 20:22 21.55274 -55.58138 37973 ft 434 kts 237°
2026-04-30 20:23 21.51418 -55.63121 37973 ft 434 kts 237°
2026-04-30 20:23 21.47556 -55.68107 37974 ft 434 kts 237°
2026-04-30 20:24 21.43689 -55.73095 37975 ft 435 kts 237°
2026-04-30 20:24 21.39821 -55.78080 37974 ft 435 kts 237°
2026-04-30 20:25 21.34008 -55.85562 37978 ft 435 kts 237°
2026-04-30 20:26 21.28194 -55.93036 37979 ft 435 kts 237°
2026-04-30 20:26 21.22377 -56.00504 37975 ft 435 kts 237°
2026-04-30 20:27 21.14641 -56.10422 37977 ft 435 kts 236°
2026-04-30 20:28 21.06864 -56.20374 37981 ft 436 kts 236°
2026-04-30 20:30 20.97121 -56.32817 37981 ft 437 kts 236°
2026-04-30 20:31 20.85393 -56.47758 37983 ft 437 kts 236°
2026-04-30 20:32 20.75606 -56.60194 37980 ft 438 kts 236°
2026-04-30 20:33 20.69723 -56.67656 37980 ft 438 kts 236°
2026-04-30 20:34 20.63861 -56.75084 37980 ft 438 kts 236°
2026-04-30 20:35 20.57969 -56.82536 37977 ft 437 kts 236°
2026-04-30 20:35 20.52083 -56.89973 37981 ft 437 kts 236°
2026-04-30 20:36 20.48161 -56.94923 37980 ft 437 kts 236°
2026-04-30 20:37 20.42271 -57.02349 37981 ft 437 kts 236°
2026-04-30 20:37 20.38352 -57.07286 37978 ft 436 kts 236°
2026-04-30 20:38 20.34429 -57.12222 37978 ft 436 kts 236°
2026-04-30 20:38 20.30515 -57.17142 37979 ft 435 kts 236°
2026-04-30 20:39 20.24647 -57.24512 37980 ft 434 kts 236°
2026-04-30 20:40 20.18787 -57.31862 37980 ft 433 kts 236°
2026-04-30 20:40 20.14887 -57.36748 37981 ft 433 kts 236°
2026-04-30 20:41 20.09035 -57.44074 37976 ft 433 kts 236°
2026-04-30 20:41 20.05133 -57.48952 37984 ft 433 kts 236°
2026-04-30 20:42 20.01230 -57.53828 37982 ft 433 kts 236°
2026-04-30 20:43 19.96033 -57.60314 37977 ft 433 kts 236°
2026-04-30 20:43 19.92126 -57.65185 37975 ft 433 kts 236°
2026-04-30 20:44 19.86267 -57.72483 37985 ft 433 kts 236°
2026-04-30 20:45 19.78456 -57.82197 37979 ft 432 kts 236°
2026-04-30 20:45 19.74548 -57.87052 37979 ft 432 kts 236°
2026-04-30 20:46 19.66743 -57.96734 37980 ft 431 kts 236°
2026-04-30 20:47 19.60921 -58.03947 37975 ft 431 kts 236°
2026-04-30 20:48 19.55077 -58.11179 37974 ft 430 kts 236°
2026-04-30 20:48 19.51181 -58.15994 37978 ft 430 kts 236°
2026-04-30 20:49 19.47259 -58.20839 37974 ft 430 kts 236°
2026-04-30 20:50 19.41420 -58.28043 37977 ft 429 kts 236°
2026-04-30 20:50 19.37553 -58.32809 37977 ft 429 kts 236°
2026-04-30 20:51 19.33663 -58.37601 37972 ft 429 kts 236°
2026-04-30 20:51 19.27823 -58.44787 37967 ft 429 kts 236°
2026-04-30 20:52 19.23928 -58.49574 37982 ft 429 kts 236°
2026-04-30 20:53 19.18082 -58.56752 37969 ft 429 kts 235°
2026-04-30 20:53 19.14188 -58.61530 37969 ft 429 kts 235°
2026-04-30 20:54 19.08338 -58.68700 37973 ft 429 kts 235°
2026-04-30 20:55 19.02480 -58.75871 37969 ft 430 kts 235°
2026-04-30 20:55 18.98572 -58.80650 37965 ft 430 kts 235°
2026-04-30 20:56 18.92696 -58.87829 37974 ft 431 kts 235°
2026-04-30 20:57 18.86814 -58.95007 37968 ft 431 kts 235°
2026-04-30 20:57 18.82885 -58.99796 37969 ft 432 kts 235°
2026-04-30 20:58 18.76984 -59.06983 37971 ft 432 kts 235°
2026-04-30 20:58 18.73050 -59.11769 37969 ft 432 kts 235°
2026-04-30 20:59 18.67143 -59.18949 37967 ft 432 kts 234°
2026-04-30 21:00 18.59264 -59.28513 37966 ft 432 kts 234°
2026-04-30 21:01 18.53351 -59.35681 37969 ft 432 kts 234°
2026-04-30 21:02 18.47455 -59.42820 37965 ft 432 kts 234°
2026-04-30 21:02 18.43505 -59.47599 37967 ft 433 kts 234°
2026-04-30 21:03 18.39550 -59.52379 37966 ft 433 kts 234°
2026-04-30 21:03 18.35593 -59.57159 37963 ft 433 kts 234°
2026-04-30 21:04 18.31633 -59.61938 37965 ft 433 kts 234°
2026-04-30 21:04 18.25690 -59.69104 37966 ft 433 kts 234°
2026-04-30 21:05 18.21724 -59.73883 37968 ft 434 kts 234°
2026-04-30 21:05 18.17752 -59.78664 37964 ft 434 kts 234°
2026-04-30 21:06 18.13781 -59.83442 37962 ft 434 kts 234°
2026-04-30 21:06 18.09805 -59.88220 37963 ft 434 kts 234°
2026-04-30 21:07 18.05824 -59.93001 37956 ft 434 kts 234°
2026-04-30 21:07 18.01844 -59.97779 37864 ft 434 kts 234°
2026-04-30 21:08 17.99765 -60.00084 37612 ft 438 kts 228°
2026-04-30 21:08 17.97474 -60.02220 37351 ft 441 kts 227°
2026-04-30 21:08 17.95220 -60.04267 37103 ft 443 kts 227°
2026-04-30 21:08 17.92880 -60.06379 36851 ft 444 kts 227°
2026-04-30 21:09 17.90529 -60.08496 36594 ft 446 kts 227°
2026-04-30 21:09 17.88166 -60.10619 36357 ft 447 kts 227°
2026-04-30 21:09 17.85800 -60.12743 36108 ft 449 kts 227°
2026-04-30 21:09 17.83422 -60.14877 35869 ft 450 kts 227°
2026-04-30 21:10 17.81034 -60.17018 35629 ft 452 kts 227°
2026-04-30 21:10 17.78642 -60.19162 35393 ft 453 kts 227°
2026-04-30 21:10 17.76239 -60.21315 35155 ft 455 kts 227°
2026-04-30 21:10 17.73829 -60.23474 34923 ft 456 kts 227°
2026-04-30 21:11 17.71413 -60.25637 34693 ft 458 kts 227°
2026-04-30 21:11 17.69020 -60.27779 34466 ft 459 kts 227°
2026-04-30 21:11 17.66589 -60.29953 34238 ft 460 kts 227°
2026-04-30 21:11 17.64119 -60.32161 34009 ft 461 kts 227°
2026-04-30 21:12 17.61713 -60.34313 33758 ft 462 kts 227°
2026-04-30 21:12 17.59263 -60.36505 33495 ft 463 kts 227°
2026-04-30 21:12 17.56808 -60.38699 33245 ft 464 kts 226°
2026-04-30 21:12 17.54351 -60.40894 32999 ft 465 kts 226°
2026-04-30 21:13 17.51882 -60.43097 32738 ft 467 kts 226°
2026-04-30 21:13 17.49411 -60.45302 32377 ft 466 kts 226°
2026-04-30 21:13 17.46943 -60.47504 31597 ft 467 kts 225°
2026-04-30 21:13 17.44472 -60.49707 31000 ft 464 kts 225°
2026-04-30 21:14 17.42023 -60.51889 30411 ft 462 kts 225°
2026-04-30 21:14 17.39581 -60.54064 29786 ft 460 kts 224°
2026-04-30 21:14 17.37148 -60.56231 29146 ft 458 kts 224°
2026-04-30 21:14 17.34728 -60.58385 28541 ft 454 kts 224°
2026-04-30 21:15 17.32330 -60.60518 27951 ft 451 kts 224°
2026-04-30 21:15 17.29945 -60.62640 27362 ft 448 kts 223°
2026-04-30 21:15 17.27580 -60.64744 26788 ft 445 kts 223°
2026-04-30 21:15 17.25228 -60.66835 26203 ft 442 kts 223°
2026-04-30 21:16 17.22910 -60.68934 25623 ft 438 kts 225°
2026-04-30 21:16 17.20822 -60.71235 25040 ft 434 kts 230°
2026-04-30 21:16 17.18862 -60.73618 24475 ft 431 kts 231°
2026-04-30 21:16 17.16920 -60.76003 23914 ft 429 kts 230°
2026-04-30 21:17 17.14993 -60.78367 23318 ft 426 kts 230°
2026-04-30 21:17 17.13075 -60.80713 22703 ft 422 kts 230°
2026-04-30 21:17 17.11176 -60.83031 22148 ft 417 kts 230°
2026-04-30 21:17 17.09299 -60.85321 21573 ft 413 kts 230°
2026-04-30 21:18 17.07435 -60.87593 21020 ft 409 kts 230°
2026-04-30 21:18 17.05590 -60.89842 20459 ft 406 kts 230°
2026-04-30 21:18 17.03757 -60.92075 19893 ft 403 kts 230°
2026-04-30 21:18 17.01937 -60.94291 19334 ft 401 kts 230°
2026-04-30 21:19 17.00123 -60.96499 18773 ft 399 kts 230°
2026-04-30 21:19 16.98319 -60.98696 18204 ft 398 kts 229°
2026-04-30 21:19 16.96523 -61.00880 17573 ft 396 kts 230°
2026-04-30 21:19 16.94736 -61.03052 16976 ft 392 kts 230°
2026-04-30 21:20 16.92963 -61.05207 16413 ft 390 kts 230°
2026-04-30 21:20 16.91202 -61.07347 15844 ft 387 kts 230°
2026-04-30 21:20 16.89453 -61.09472 15272 ft 385 kts 230°
2026-04-30 21:20 16.87710 -61.11588 14705 ft 383 kts 230°
2026-04-30 21:21 16.85976 -61.13693 14144 ft 382 kts 230°
2026-04-30 21:21 16.84248 -61.15790 13553 ft 380 kts 230°
2026-04-30 21:21 16.80827 -61.19943 12392 ft 374 kts 230°
2026-04-30 21:22 16.79138 -61.21992 11837 ft 371 kts 230°
2026-04-30 21:22 16.74147 -61.28043 10516 ft 355 kts 229°
2026-04-30 21:23 16.72570 -61.29953 10386 ft 340 kts 229°
2026-04-30 21:23 16.71057 -61.31784 10265 ft 326 kts 229°
2026-04-30 21:23 16.68212 -61.35227 9996 ft 302 kts 229°
2026-04-30 21:24 16.66863 -61.36860 9792 ft 295 kts 229°
2026-04-30 21:24 16.65526 -61.38479 9400 ft 295 kts 229°
2026-04-30 21:24 16.64188 -61.40098 9053 ft 294 kts 229°
2026-04-30 21:24 16.62854 -61.41711 8725 ft 293 kts 229°
2026-04-30 21:25 16.60202 -61.44918 8084 ft 291 kts 228°
2026-04-30 21:25 16.58901 -61.46491 7764 ft 290 kts 228°
2026-04-30 21:25 16.57589 -61.48076 7437 ft 288 kts 228°
2026-04-30 21:26 16.54981 -61.51226 6779 ft 286 kts 227°
2026-04-30 21:26 16.53686 -61.52789 6450 ft 284 kts 227°
2026-04-30 21:27 16.51113 -61.55894 5779 ft 282 kts 227°
2026-04-30 21:27 16.49835 -61.57431 5471 ft 280 kts 227°
2026-04-30 21:27 16.48567 -61.58959 5154 ft 278 kts 227°
2026-04-30 21:28 16.46279 -61.62081 4791 ft 261 kts 233°
2026-04-30 21:28 16.45280 -61.63619 4657 ft 251 kts 234°
2026-04-30 21:28 16.43395 -61.66521 4295 ft 235 kts 234°
2026-04-30 21:29 16.42483 -61.67923 4038 ft 233 kts 233°
2026-04-30 21:29 16.38660 -61.70047 3440 ft 218 kts 166°
2026-04-30 21:30 16.36262 -61.69415 3205 ft 204 kts 163°
2026-04-30 21:31 16.32493 -61.68386 2754 ft 170 kts 163°
2026-04-30 21:31 16.30457 -61.67420 2498 ft 158 kts 131°
2026-04-30 21:32 16.29435 -61.65495 2265 ft 144 kts 114°
2026-04-30 21:32 16.29024 -61.64591 2086 ft 137 kts 114°
2026-04-30 21:32 16.28620 -61.63697 1992 ft 138 kts 115°
2026-04-30 21:32 16.28339 -61.62709 1721 ft 142 kts 101°
2026-04-30 21:33 16.28155 -61.61728 1489 ft 137 kts 101°
2026-04-30 21:33 16.27761 -61.59802 1092 ft 136 kts 102°
2026-04-30 21:33 16.27590 -61.58837 883 ft 135 kts 102°
2026-04-30 21:34 16.27421 -61.57895 706 ft 132 kts 101°
2026-04-30 21:34 16.27067 -61.55991 390 ft 141 kts 104°
2026-04-30 21:34 16.26875 -61.54988 150 ft 139 kts 104°
2026-04-30 21:35 16.26694 -61.54031 27 ft 129 kts 103°
2026-04-30 21:35 16.26555 -61.53307 31 ft 64 kts 101°
2026-04-30 21:35 16.26503 -61.53032 32 ft 32 kts 101°
2026-04-30 21:35 16.26463 -61.52815 33 ft 29 kts 101°
2026-04-30 21:36 16.26425 -61.52613 34 ft 28 kts 101°
2026-04-30 21:36 16.26391 -61.52426 40 ft 25 kts 101°
2026-04-30 21:37 16.26460 -61.52223 44 ft 14 kts 14°
2026-04-30 21:37 16.26556 -61.52204 39 ft 15 kts 11°
2026-04-30 21:37 16.26625 -61.52190 33 ft 1 kts 11°
2026-04-30 21:37 16.26660 -61.52184 31 ft 9 kts
2026-04-30 21:38 16.26720 -61.52215 29 ft 11 kts 308°
2026-04-30 21:38 16.26744 -61.52298 29 ft 13 kts 281°
2026-04-30 21:38 16.26762 -61.52397 29 ft 13 kts 281°
2026-04-30 21:38 16.26779 -61.52494 29 ft 15 kts 281°
2026-04-30 21:39 16.26798 -61.52592 29 ft 9 kts 281°
2026-04-30 21:39 16.26810 -61.52658 29 ft 10 kts 282°
2026-04-30 21:39 16.26841 -61.52678 29 ft 5 kts 349°
2026-04-30 21:39 16.26872 -61.52676 29 ft 4 kts
2026-04-30 21:40 16.26887 -61.52673 29 ft 0 kts 10°